YAOGAN-22

Last updated on Sun Apr 12 2026 00:02:35 GMT+0000 (Coordinated Universal Time)

1 40275U 14063A 26101.41284451 -.00000025 00000+0 56930-4 0 9995 2 40275 100.7614 251.6021 0006032 345.4960 14.5977 13.15528881551037
UTC large
Height (km)
Speed (km/s)
/
Latitude / Longitude
Inclination (degrees)
Orbital Period (minutes)
Azimuth
Elevation
Range (km)
Doppler Factor

Next 0 passes for location: London (51.5072 / 0.1276)

Sorry there are no passes over London.
YAOGAN-22